User: anonymous   Login
Location: Weston
(26.1283°N, 80.4075°W)
Time: 02:09:00
(UTC-04:00)
Language:

H-2A R/B - Orbit

View from above orbital plane
View from above orbital plane
View from above satellite
View from above satellite

Ground track
Ground track

The orbit data is extracted from the following two-line orbital elements,

1 26899U 01038B   15086.88756185  .00004726  00000-0  14447-2 0  9995
2 26899 028.3736 033.8568 7147113 012.3740 035.1052 02.44677015116469
Epoch (UTC): 27 March 2015 21:18:05
Eccentricity: 0.7147113
inclination: 28.3736°
perigee height: 258 km
apogee height: 33511 km
right ascension of ascending node: 33.8568°
argument of perigee: 12.3740°
revolutions per day: 2.44677015
mean anomaly at epoch: 35.1052°
orbit number at epoch: 11646

The dashed part of the orbit path shows where the satellite is in the earth's shadow,  

DLR